Location: Newark
(45.4333°N, 73.7333°W)
Time: 17:54:31
(UTC+00:00)

Envisat - Visible Passes

Search period start: 15 September 2019 00:00
Search period end: 25 September 2019 00:00
Orbit: 764 x 766 km, 98.1° (Epoch: 15 September)

Date Brightness Start Highest point End Pass type
(mag) Time Alt. Az. Time Alt. Az. Time Alt. Az.
16 Sep 5.7 00:12:01 10° SW 00:15:52 21° W 00:19:44 10° NW visible
16 Sep 4.3 23:33:59 10° S 23:38:50 45° W 23:43:42 10° NNW visible
18 Sep 6.1 00:39:36 10° WSW 00:41:41 12° W 00:43:47 10° WNW visible
19 Sep 5.3 00:00:16 10° SSW 00:04:30 27° W 00:08:47 10° NW visible
19 Sep 3.9 23:22:33 10° S 23:27:31 56° W 23:32:33 10° NNW visible
21 Sep 5.9 00:27:15 10° SW 00:30:17 16° W 00:33:19 10° NW visible
21 Sep 4.9 23:48:36 10° SSW 23:53:10 33° W 23:57:45 10° NNW visible
24 Sep 5.8 00:15:15 10° SW 00:18:53 20° W 00:22:34 10° NW visible
24 Sep 4.5 23:37:04 10° SSW 23:41:51 41° W 23:46:39 10° NNW visible
